Tracking 31027 objects as of 19-Jul-2025
HD Live streaming from Space Station
objects crossing your sky now

STARLINK-3285

Track STARLINK-3285 now!
10-day predictions
STARLINK-3285 is classified as:


NORAD ID: 50181
Int'l Code: 2021-125AB
Perigee: 545.9 km
Apogee: 547.8 km
Inclination: 53.2 °
Period: 95.4 minutes
Semi major axis: 6917 km
RCS: Unknown
Launch date: December 18, 2021
Source: United States (US)
Launch site: AIR FORCE WESTERN TEST RANGE (AFWTR)
Your satellite tracking list
ATLAS 2A CENTAUR R/B
Track 1 satellite(s)




NASA's NSSDC Master Catalog

Two Line Element Set (TLE):
1 50181U 21125AB  25199.77687509 -.00000005  00000-0  17752-4 0  9993
2 50181  53.2161 219.2046 0001366  87.5287 272.5861 15.08836022201292
Source of the keplerian elements: AFSPC